This is the latest recevied weather packets stored in our database for station/object N0ZMJ-4. If no packets are shown the sender has not sent any weather packets the latest 10 day(s).
| Time | Temp. | Humidity | Pressure | Rain* | Wind** | Luminosity | Snow |
|---|---|---|---|---|---|---|---|
| 1777485003 | 13.33° C | 45% | 1017 hPa | 0 mm | - | - | - |
| 1777484703 | 13.33° C | 48% | 1017.1 hPa | 0 mm | - | - | - |
| 1777484402 | 13.33° C | 50% | 1017.2 hPa | 0 mm | - | - | - |
| 1777484103 | 12.78° C | 52% | 1017.3 hPa | 0 mm | - | - | - |
| 1777483803 | 13.33° C | 49% | 1017.3 hPa | 0 mm | - | - | - |
| 1777483503 | 12.78° C | 50% | 1017.2 hPa | 0 mm | - | - | - |
| 1777483203 | 12.22° C | 53% | 1017.4 hPa | 0 mm | - | - | - |
| 1777482903 | 12.22° C | 53% | 1017.5 hPa | 0 mm | - | - | - |
| 1777482603 | 12.22° C | 53% | 1017.6 hPa | 0 mm | - | - | - |
| 1777482303 | 12.22° C | 56% | 1017.5 hPa | 0 mm | - | - | - |
| 1777482003 | 11.67° C | 55% | 1017.6 hPa | 0 mm | - | - | - |
| 1777481702 | 11.67° C | 54% | 1017.6 hPa | 0 mm | - | - | - |
| 1777481403 | 11.11° C | 53% | 1017.6 hPa | 0 mm | - | - | - |
| 1777481102 | 11.11° C | 51% | 1017.5 hPa | 0 mm | - | - | - |
| 1777480803 | 11.11° C | 48% | 1017.6 hPa | 0 mm | - | - | - |
| 1777480503 | 11.11° C | 48% | 1017.6 hPa | 0 mm | - | - | - |
| 1777480203 | 11.67° C | 45% | 1017.6 hPa | 0 mm | - | - | - |
| 1777479903 | 11.67° C | 47% | 1017.6 hPa | 0 mm | - | - | - |
| 1777479603 | 11.67° C | 48% | 1017.5 hPa | 0 mm | - | - | - |
| 1777479303 | 11.11° C | 48% | 1017.6 hPa | 0 mm | - | - | - |
| 1777479003 | 11.11° C | 49% | 1017.6 hPa | 0 mm | - | - | - |
| 1777478703 | 11.11° C | 48% | 1017.6 hPa | 0 mm | - | - | - |
| 1777478403 | 11.11° C | 49% | 1017.6 hPa | 0 mm | - | - | - |
| 1777478103 | 11.11° C | 49% | 1017.6 hPa | 0 mm | - | - | - |
| 1777477802 | 11.11° C | 51% | 1017.6 hPa | 0 mm | - | - | - |
* Rain latest hour (hover to see other rain measurements)
** Current wind speed in m/s (hover to see current wind gust speed)